Beach, ND

3:57 AM MDT on April 24, 2017 (GMT -0600)
Beach

Weather History for K20U - October, 2012

Change the Weather History Date:

Monday, October 22, 2012

  Actual Average (KGDV) Record (KGDV)
Temperature  
Mean Temperature 37 °F -  
Max Temperature 42 °F 51 °F 71 °F (2015)
Min Temperature 32 °F 30 °F 6 °F (2002)
Degree Days  
Heating Degree Days 28    
Moisture  
Dew Point 34 °F    
Average Humidity 89    
Maximum Humidity 100    
Minimum Humidity 66    
Precipitation  
Precipitation 0.06 in - - ()
Sea Level Pressure  
Sea Level Pressure 29.90 in    
Wind  
Wind Speed 16 mph (ESE)    
Max Wind Speed 26 mph    
Max Gust Speed 34 mph    
Visibility 9 miles    
Events Rain , Snow    
Averages and records for this station are not official NWS values.
T = Trace of Precipitation, MM = Missing Value Source: NWS Daily Summary

Daily Weather History Graph

Daily Weather History Graph

Search for Another Location

Airport or City:

Trip Planner

Search our weather history database for the weather conditions in past years. The results will help you decide how hot, cold, wet, or windy it might be!

Date:

Astronomy

Oct. 22, 2012 Rise Set
Actual Time 7:24 AM MDT 5:55 PM MDT
Civil Twilight 6:53 AM MDT 6:26 PM MDT
Nautical Twilight 6:18 AM MDT 7:01 PM MDT
Astronomical Twilight 5:42 AM MDT 7:36 PM MDT
Moon 2:28 PM MDT (10/22) No Moon Set
Length of Visible Light 11h 32m
Length of Day
10h 30m
First Quarter, 57% of the Moon is Illuminated
Oct 22
First Quarter
Oct 29
Full
Nov 6
Last Quarter
Nov 13
New
Nov 20
First Quarter

Hourly Weather History & Observations

Time (MDT) Temp. Windchill Dew Point Humidity Pressure Visibility Wind Dir Wind Speed Gust Speed Precip Events Conditions
12:35 AM 37.4 °F 29.8 °F 33.8 °F 87% 30.05 in 4.0 mi SE 11.5 mph - N/A   Scattered Clouds
12:55 AM 37.4 °F 28.9 °F 33.8 °F 87% 30.05 in 5.0 mi SE 13.8 mph 18.4 mph 0.01 in   Partly Cloudy
1:35 AM 35.6 °F 27.1 °F 32.0 °F 87% 30.04 in 7.0 mi ESE 12.7 mph 18.4 mph 0.01 in   Scattered Clouds
1:55 AM 33.8 °F 25.8 °F 32.0 °F 93% 30.03 in 6.0 mi ESE 10.4 mph - 0.02 in   Mostly Cloudy
2:15 AM 33.8 °F 25.3 °F 32.0 °F 93% 30.03 in 7.0 mi ESE 11.5 mph - N/A   Overcast
2:55 AM 33.8 °F 23.9 °F 32.0 °F 93% 30.03 in 6.0 mi SE 15.0 mph - N/A   Mostly Cloudy
3:15 AM 32.0 °F 22.5 °F 32.0 °F 100% 30.02 in 3.0 mi SE 12.7 mph - 0.02 in Snow Light Snow
3:35 AM 32.0 °F 22.5 °F 32.0 °F 100% 30.01 in 5.0 mi SE 12.7 mph - 0.03 in   Overcast
3:55 AM 32.0 °F 21.6 °F 32.0 °F 100% 30.00 in 9.0 mi ESE 15.0 mph - 0.03 in Rain Light Rain
4:15 AM 32.0 °F 23.0 °F 32.0 °F 100% 29.99 in 10.0 mi ESE 11.5 mph - N/A   Overcast
4:35 AM 32.0 °F 20.8 °F 32.0 °F 100% 29.99 in 9.0 mi ESE 17.3 mph - N/A   Overcast
4:55 AM 33.8 °F 23.2 °F 33.8 °F 100% 29.98 in 8.0 mi ESE 17.3 mph 23.0 mph N/A   Overcast
5:15 AM 33.8 °F 21.6 °F 33.8 °F 100% 29.97 in 10.0 mi ESE 23.0 mph 28.8 mph N/A   Overcast
5:35 AM 35.6 °F 25.9 °F 33.8 °F 93% 29.96 in 10.0 mi ESE 16.1 mph 27.6 mph N/A   Overcast
5:55 AM 35.6 °F 24.8 °F 33.8 °F 93% 29.96 in 10.0 mi SE 19.6 mph 25.3 mph N/A   Overcast
6:15 AM 35.6 °F 24.8 °F 33.8 °F 93% 29.97 in 10.0 mi SE 19.6 mph 25.3 mph N/A   Overcast
6:35 AM 35.6 °F 24.5 °F 33.8 °F 93% 29.97 in 10.0 mi SE 20.7 mph 26.5 mph N/A   Overcast
6:55 AM 35.6 °F 24.5 °F 33.8 °F 93% 29.96 in 10.0 mi ESE 20.7 mph 26.5 mph N/A   Overcast
7:35 AM 35.6 °F 25.5 °F 33.8 °F 93% 29.98 in 10.0 mi SE 17.3 mph 25.3 mph N/A   Overcast
7:55 AM 35.6 °F 25.2 °F 33.8 °F 93% 29.98 in 10.0 mi SE 18.4 mph 24.2 mph N/A   Overcast
8:15 AM 35.6 °F 25.9 °F 33.8 °F 93% 29.98 in 10.0 mi SE 16.1 mph 23.0 mph N/A   Overcast
8:35 AM 35.6 °F 25.5 °F 33.8 °F 93% 29.97 in 10.0 mi SE 17.3 mph 21.9 mph N/A   Overcast
8:55 AM 35.6 °F 25.9 °F 33.8 °F 93% 29.97 in 10.0 mi ESE 16.1 mph 19.6 mph N/A   Overcast
9:15 AM 37.4 °F 27.5 °F 33.8 °F 87% 29.98 in 10.0 mi ESE 18.4 mph 25.3 mph N/A   Overcast
9:35 AM 37.4 °F 27.5 °F 33.8 °F 87% 29.98 in 10.0 mi ESE 18.4 mph 23.0 mph N/A   Overcast
9:55 AM 37.4 °F 28.2 °F 33.8 °F 87% 29.97 in 10.0 mi ESE 16.1 mph 23.0 mph N/A   Overcast
10:35 AM 37.4 °F 26.9 °F 33.8 °F 87% 29.97 in 10.0 mi SE 20.7 mph 25.3 mph N/A   Overcast
11:15 AM 37.4 °F 27.8 °F 33.8 °F 87% 29.95 in 10.0 mi ESE 17.3 mph 25.3 mph N/A   Overcast
11:35 AM 39.2 °F 29.3 °F 32.0 °F 75% 29.95 in 10.0 mi SE 20.7 mph 25.3 mph N/A   Overcast
11:55 AM 39.2 °F 29.3 °F 33.8 °F 81% 29.94 in 10.0 mi ESE 20.7 mph 24.2 mph N/A   Overcast
12:15 PM 39.2 °F 30.2 °F 33.8 °F 81% 29.93 in 10.0 mi ESE 17.3 mph 26.5 mph N/A   Overcast
12:35 PM 39.2 °F 29.8 °F 33.8 °F 81% 29.92 in 10.0 mi ESE 18.4 mph 26.5 mph N/A   Overcast
12:55 PM 39.2 °F 29.6 °F 33.8 °F 81% 29.91 in 10.0 mi ESE 19.6 mph 27.6 mph N/A   Overcast
1:15 PM 41.0 °F 31.9 °F 32.0 °F 70% 29.90 in 10.0 mi ESE 19.6 mph 25.3 mph N/A   Overcast
1:35 PM 41.0 °F 31.9 °F 32.0 °F 70% 29.88 in 10.0 mi ESE 19.6 mph 28.8 mph N/A   Overcast
1:55 PM 41.0 °F 31.9 °F 32.0 °F 70% 29.88 in 10.0 mi SE 19.6 mph 25.3 mph N/A   Overcast
2:15 PM 41.0 °F 32.5 °F 32.0 °F 70% 29.87 in 10.0 mi SE 17.3 mph 25.3 mph N/A   Overcast
2:35 PM 42.8 °F 35.4 °F 32.0 °F 66% 29.87 in 10.0 mi ESE 15.0 mph - N/A   Overcast
2:55 PM 42.8 °F 35.1 °F 32.0 °F 66% 29.86 in 10.0 mi ESE 16.1 mph 19.6 mph N/A   Overcast
3:15 PM 41.0 °F 33.9 °F 35.6 °F 81% 29.85 in 5.0 mi ESE 12.7 mph 18.4 mph N/A Rain Light Rain
3:35 PM 41.0 °F 34.3 °F 37.4 °F 87% 29.85 in 9.0 mi ESE 11.5 mph - N/A Rain Light Rain
3:55 PM 41.0 °F 33.5 °F 37.4 °F 87% 29.84 in 8.0 mi ESE 13.8 mph - N/A Rain Light Rain
4:15 PM 39.2 °F 31.6 °F 37.4 °F 93% 29.83 in 5.0 mi ESE 12.7 mph - N/A Rain Light Rain
4:35 PM 39.2 °F 31.2 °F 37.4 °F 93% 29.82 in 5.0 mi ESE 13.8 mph - N/A Rain Light Rain
4:55 PM 37.4 °F 28.5 °F 37.4 °F 100% 29.82 in 5.0 mi ESE 15.0 mph 18.4 mph N/A Rain Light Rain
5:15 PM 37.4 °F 28.5 °F 37.4 °F 100% 29.81 in 5.0 mi ESE 15.0 mph 20.7 mph N/A Rain Light Rain
5:35 PM 37.4 °F 27.5 °F 37.4 °F 100% 29.80 in 9.0 mi ESE 18.4 mph 21.9 mph N/A   Mostly Cloudy
5:55 PM 37.4 °F 27.5 °F 37.4 °F 100% 29.78 in 8.0 mi ESE 18.4 mph 25.3 mph N/A   Overcast
6:35 PM 37.4 °F 27.5 °F 35.6 °F 93% 29.77 in 10.0 mi ESE 18.4 mph 28.8 mph N/A   Overcast
7:55 PM 37.4 °F 25.6 °F 33.8 °F 87% 29.71 in 10.0 mi ESE 26.5 mph 32.2 mph N/A   Overcast
8:15 PM 37.4 °F 26.4 °F 33.8 °F 87% 29.72 in 10.0 mi ESE 23.0 mph 31.1 mph N/A   Overcast
8:55 PM 37.4 °F 25.6 °F 33.8 °F 87% 29.69 in 10.0 mi ESE 26.5 mph 34.5 mph N/A   Mostly Cloudy
9:35 PM 35.6 °F 24.5 °F 33.8 °F 93% 29.69 in 10.0 mi SE 20.7 mph 26.5 mph N/A   Overcast
9:55 PM 35.6 °F 25.2 °F 33.8 °F 93% 29.70 in 10.0 mi SE 18.4 mph 24.2 mph N/A   Overcast
10:15 PM 35.6 °F 25.2 °F 32.0 °F 87% 29.69 in 10.0 mi SE 18.4 mph 25.3 mph N/A   Overcast
10:35 PM 35.6 °F 26.6 °F 32.0 °F 87% 29.71 in 10.0 mi ESE 13.8 mph 18.4 mph N/A   Overcast
11:15 PM 35.6 °F 26.6 °F 33.8 °F 93% 29.68 in 10.0 mi ESE 13.8 mph 19.6 mph N/A   Overcast
11:35 PM 37.4 °F 28.5 °F 33.8 °F 87% 29.68 in 10.0 mi ESE 15.0 mph 20.7 mph N/A   Overcast